This demonstration page uses our WeatherBlox Daily Observations layout. Learn more.

Hourly Observations for July 8, 2019

Temp ( °F °C ) Dew Point ( °F °C ) Humidity (%) Winds ( mph kmh ) Pressure ( in mb ) Visibility ( mi km ) Precip ( " mm )
12:15 am 00:15 Cloudy 75 24 73 23 94 94 NE 5 7 29.91 1013 10 16.09344 0 0
12:30 am 00:30 Cloudy 73 23 73 23 100 100 NE 6 9 29.91 1013 10 16.09344 0 0
12:55 am 00:55 Cloudy with Nearby Thunderstorms 73 23 73 23 100 100 ENE 3 6 29.91 1013 10 16.09344 0 0
1:15 am 01:15 Cloudy 73 23 73 23 100 100 NE 5 7 29.91 1013 10 16.09344 0 0
1:35 am 01:35 Cloudy with Nearby Thunderstorms 73 23 73 23 100 100 ENE 5 7 29.91 1013 7 11.265408 0 0
1:55 am 01:55 Cloudy 72 22 72 22 100 100 NE 5 7 29.91 1013 7 11.265408 0 0
2:15 am 02:15 Cloudy 72 22 72 22 100 100 ENE 5 7 29.88 1012 3 4.828032 0.04 1.016
2:35 am 02:35 Cloudy 72 22 72 22 100 100 ENE 5 7 29.88 1012 5 8.04672 0.1 2.54
2:55 am 02:55 Cloudy 72 22 72 22 100 100 ENE 3 6 29.88 1012 7 11.265408 0.1 2.54
3:15 am 03:15 Cloudy 72 22 72 22 100 100 ENE 3 6 29.88 1012 7 11.265408 0 0
3:35 am 03:35 Cloudy 72 22 72 22 100 100 ENE 3 6 29.88 1012 7 11.265408 0 0
3:55 am 03:55 Cloudy 72 22 72 22 100 100 Calm 29.88 1012 7 11.265408 0 0
4:15 am 04:15 Cloudy 72 22 72 22 100 100 Calm 29.88 1012 10 16.09344 0 0
4:35 am 04:35 Cloudy 72 22 72 22 100 100 ESE 6 9 29.88 1012 10 16.09344 0 0
4:55 am 04:55 Cloudy 72 22 72 22 100 100 E 5 7 29.88 1012 10 16.09344 0 0
5:15 am 05:15 Cloudy 70 21 70 21 100 100 Calm 29.88 1012 10 16.09344 0 0
5:35 am 05:35 Cloudy 70 21 70 21 100 100 ESE 7 11 29.88 1012 10 16.09344 0 0
5:55 am 05:55 Cloudy 70 21 70 21 100 100 SSE 5 7 29.88 1012 7 11.265408 0 0
6:15 am 06:15 Cloudy 72 22 72 22 100 100 S 6 9 29.85 1011 10 16.09344 0 0
6:35 am 06:35 Cloudy 70 21 70 21 100 100 Calm 29.88 1012 7 11.265408 0 0
6:55 am 06:55 Cloudy with Nearby Thunderstorms 70 21 70 21 100 100 WNW 7 11 29.88 1012 7 11.265408 0 0
7:15 am 07:15 Cloudy with Nearby Thunderstorms 70 21 70 21 100 100 NW 8 13 29.88 1012 7 11.265408 0 0
7:35 am 07:35 Cloudy 70 21 70 21 100 100 NNW 8 13 29.88 1012 10 16.09344 0 0
7:55 am 07:55 Cloudy 70 21 70 21 100 100 N 12 19 29.88 1012 5 8.04672 0.08 2.032
8:15 am 08:15 Cloudy with Nearby Thunderstorms 68 20 68 20 100 100 NE 3 6 29.91 1013 0.75 1.207008 0.38 9.652
8:35 am 08:35 Cloudy 68 20 68 20 100 100 NE 7 11 29.91 1013 2.5 4.02336 0.53 13.462
8:55 am 08:55 Cloudy 68 20 68 20 100 100 ENE 5 7 29.91 1013 3 4.828032 0.56 14.224
9:15 am 09:15 Cloudy with Nearby Thunderstorms 68 20 68 20 100 100 ENE 3 6 29.91 1013 5 8.04672 0.01 0.254
9:35 am 09:35 Cloudy 68 20 68 20 100 100 NNE 6 9 29.91 1013 7 11.265408 0.02 0.508
9:55 am 09:55 Cloudy 68 20 68 20 100 100 NE 12 19 29.91 1013 10 16.09344 0.02 0.508
10:15 am 10:15 Cloudy 68 20 68 20 100 100 NNE 8 13 29.94 1014 2 3.218688 0.05 1.27
10:35 am 10:35 Cloudy 68 20 68 20 100 100 NNE 8 13 29.94 1014 4 6.437376 0.11 2.794
10:55 am 10:55 Cloudy 68 20 68 20 100 100 NNE 8 13 29.94 1014 4 6.437376 0.12 3.048
11:15 am 11:15 Cloudy 68 20 68 20 100 100 NNE 10 17 29.94 1014 4 6.437376 0.03 0.762
11:35 am 11:35 Cloudy 68 20 68 20 100 100 NE 7 11 29.94 1014 5 8.04672 0.05 1.27
11:55 am 11:55 Cloudy 68 20 68 20 100 100 NE 10 17 29.94 1014 5 8.04672 0.06 1.524
12:15 pm 12:15 Cloudy 68 20 68 20 100 100 NE 10 17 29.94 1014 5 8.04672 0.01 0.254
12:35 pm 12:35 Cloudy 68 20 68 20 100 100 NE 13 20 29.97 1015 7 11.265408 0.02 0.508
12:55 pm 12:55 Cloudy 68 20 68 20 100 100 NE 12 19 29.97 1015 7 11.265408 0.02 0.508
1:15 pm 13:15 Cloudy 68 20 68 20 100 100 NE 8 13 29.97 1015 4 6.437376 0 0
1:35 pm 13:35 Cloudy 66 19 66 19 100 100 NE 7 11 29.97 1015 4 6.437376 0.01 0.254
1:55 pm 13:55 Cloudy 66 19 66 19 100 100 NE 12 19 29.97 1015 3 4.828032 0.04 1.016
2:15 pm 14:15 Cloudy 66 19 66 19 100 100 ENE 8 13 29.97 1015 3 4.828032 0.02 0.508
2:35 pm 14:35 Cloudy 66 19 66 19 100 100 NE 12 19 29.97 1015 3 4.828032 0.04 1.016
2:55 pm 14:55 Cloudy 66 19 66 19 100 100 ENE 12 19 30 1016 7 11.265408 0.05 1.27
3:15 pm 15:15 Cloudy 68 20 64 18 88 88 E 12 19 30 1016 10 16.09344 0 0
3:35 pm 15:35 Cloudy 68 20 66 19 94 94 ENE 7 11 29.97 1015 10 16.09344 0 0
3:55 pm 15:55 Cloudy 68 20 68 20 100 100 ENE 8 13 29.97 1015 10 16.09344 0 0
4:15 pm 16:15 Cloudy 68 20 68 20 100 100 NE 5 7 29.97 1015 10 16.09344 0 0
4:35 pm 16:35 Cloudy 70 21 66 19 88 88 ENE 5 7 29.97 1015 10 16.09344 0 0
4:55 pm 16:55 Cloudy 70 21 68 20 94 94 NNE 3 6 29.97 1015 10 16.09344 0 0
5:15 pm 17:15 Cloudy 72 22 68 20 88 88 ENE 7 11 29.97 1015 10 16.09344 0 0
5:35 pm 17:35 Cloudy 72 22 68 20 88 88 ENE 3 6 29.97 1015 10 16.09344 0 0
6:15 pm 18:15 Cloudy 72 22 66 19 83 83 ENE 3 6 30 1016 10 16.09344 0 0
6:35 pm 18:35 Cloudy 72 22 68 20 88 88 NE 6 9 30 1016 10 16.09344 0 0
6:55 pm 18:55 Cloudy 72 22 68 20 88 88 NE 5 7 30 1016 10 16.09344 0 0
7:15 pm 19:15 Cloudy 72 22 68 20 88 88 NE 3 6 30 1016 10 16.09344 0 0
7:55 pm 19:55 Cloudy 72 22 68 20 88 88 Calm 30.03 1017 10 16.09344 0 0
8:15 pm 20:15 Cloudy 72 22 68 20 88 88 NE 3 6 30.03 1017 10 16.09344 0 0
8:35 pm 20:35 Cloudy 72 22 68 20 88 88 Calm 30.03 1017 10 16.09344 0 0
8:55 pm 20:55 Cloudy 72 22 68 20 88 88 Calm 30.03 1017 10 16.09344 0 0
9:15 pm 21:15 Cloudy 72 22 68 20 88 88 Calm 30.06 1018 10 16.09344 0 0
9:35 pm 21:35 Cloudy 70 21 68 20 94 94 Calm 30.06 1018 10 16.09344 0 0
9:55 pm 21:55 Cloudy 70 21 68 20 94 94 Calm 30.06 1018 10 16.09344 0 0
10:15 pm 22:15 Partly Cloudy 70 21 68 20 94 94 ENE 3 6 30.06 1018 10 16.09344 0 0
10:35 pm 22:35 Clear 68 20 68 20 100 100 Calm 30.06 1018 10 16.09344 0 0
10:55 pm 22:55 Clear 68 20 68 20 100 100 Calm 30.06 1018 10 16.09344 0 0
11:15 pm 23:15 Clear 64 18 64 18 100 100 Calm 30.06 1018 7 11.265408 0 0
11:35 pm 23:35 Clear 64 18 64 18 100 100 Calm 30.06 1018 7 11.265408 0 0
11:55 pm 23:55 Clear 63 17 63 17 100 100 Calm 30.06 1018 5 8.04672 0 0

Powered by AerisWeather